Flag for U.S.A. Weather past 2 weeks in Bismarck, North Dakota, U.S.A.

Now
21 °F

Scattered clouds.


Feels Like: 6 °F
Forecast: 0 / 16 °F
Wind: 18 mph from Northwest

Location: Bismarck Municipal Airport

Current Time: Feb 28, 2015 at 12:21:31 PM

Latest Report: Feb 28, 2015 at 11:52 AM


Visibility: 10 mi

Pressure: 30.24 "Hg

Humidity: 60%

Dew point: 9 °F

Location of BismarckLocation

Historic Weather in Bismarck — Graph

°F

Bismarck temperature yesterday

Maximum temperature yesterday: 20 °F (at 3:52 PM)
Minimum temperature yesterday: -13 °F (at 5:52 AM)
Average temperature yesterday: 4 °F

Past Weeks' High & Low Weather Summary

 TemperatureHumidityPressure
High37 °F (Feb 13, 2:52 PM)92% (Feb 20, 5:52 AM)30.90 "Hg (Feb 20, 5:52 AM)
Low-14 °F (Feb 22, 6:52 AM)30% (Feb 23, 3:52 PM)29.71 "Hg (Feb 20, 3:02 AM)
Average12 °F69%30.31 "Hg
* Reported Feb 13 10:52 AM — Feb 28 10:52 AM, Bismarck, Weather by CustomWeather, © 2015

Note: Actual official high and low records may vary slightly from our data, if they occured in-between our weather recording intervals... More about our weather records

Advertising

Bismarck weather history for previous 24 hours

 ConditionsComfort  
Time TempWeatherWind HumidityBarometerVisibility
10:52 AM
Sat, Feb 28
20 °FOvercast.8 mph62%30.22 "Hg10 mi
9:52 AM17 °FOvercast.12 mph68%30.21 "Hg10 mi
8:52 AM13 °FOvercast.No wind70%30.20 "Hg10 mi
7:52 AM8 °FOvercast.No wind79%30.19 "Hg10 mi
6:52 AM4 °FClear.3 mph80%30.19 "Hg10 mi
5:52 AM7 °FClear.3 mph79%30.19 "Hg10 mi
4:52 AM8 °FPassing clouds.8 mph72%30.18 "Hg10 mi
3:52 AM13 °FOvercast.9 mph64%30.18 "Hg10 mi
2:52 AM11 °FOvercast.13 mph64%30.21 "Hg10 mi
1:52 AM9 °FPassing clouds.12 mph66%30.23 "Hg10 mi
12:52 AM9 °FPassing clouds.9 mph66%30.24 "Hg10 mi
11:52 PM
Fri, Feb 27
9 °FOvercast.8 mph73%30.27 "Hg10 mi
10:52 PM8 °FPassing clouds.8 mph72%30.30 "Hg10 mi
9:52 PM11 °FPassing clouds.12 mph67%30.32 "Hg10 mi
8:52 PM11 °FClear.12 mph70%30.34 "Hg10 mi
7:52 PM9 °FClear.5 mph73%30.36 "Hg10 mi
6:52 PM13 °FClear.9 mph67%30.34 "Hg10 mi
5:52 PM17 °FSunny.14 mph59%30.34 "Hg10 mi
4:52 PM20 °FSunny.14 mph52%30.34 "Hg10 mi
3:52 PM20 °FSunny.15 mph52%30.37 "Hg10 mi
2:52 PM19 °FSunny.13 mph49%30.38 "Hg10 mi
1:52 PM18 °FSunny.12 mph49%30.41 "Hg10 mi
12:52 PM17 °FSunny.12 mph47%30.45 "Hg10 mi
Weather by CustomWeather, © 2015

See weather overviewHow to use our weather pages